Location: East Guldeford
(50.9500°N, 0.7500°E)
Time: 08:17:50
(UTC+00:00)

Cosmos 1943 Rocket - Pass Details

Date: 12 May 2021
Orbit: 813 x 842 km, 71.0° (Epoch: 16 June)

Event Time Altitude Azimuth Distance (km) Brightness Sun altitude
Exits shadow 21:54:26 25° 143° (SE) 1,630 3.1 -15.9°
Maximum altitude 21:56:28 32° 106° (ESE) 1,400 3.0 -16.1°
Drops below altitude 10° 22:01:22 10° 45° (NE) 2,445 4.8 -16.4°
Sets 22:04:01 0° 36° (NE) 3,378 5.7 -16.6°
